THY1131 LTBA-PANC

Flight info

Callsign THY1131
Flight time N/A
Altitude 34000
Route MAKOL N600 REVDA DCT OLMEB DCT SUFAX/N0493F330 DCT DOGIG/N0489F350 DCT REGLU DCT GATVA/N0491F340 DCT MOHNI/N0485F360 DCT SUTEV DCT RIXEM DCT PIGAX DCT BETMA P853 AMPIS/M085F360 DCT 84N010E 86N000E/M085F380 87N020W 87N099W/N0494F380 85N130W DCT COALL DCT KARLL/N0494F390 DCT BTT DCT ENN DCT TKA DCT TAGER DCT YOHNN DCT CARDD DCT KANSY
Aircraft A35K/H-SDE2E3GHIJ3J4J5LM1ORWXY/LB1D1

Departure

Time 2026-04-30 21:17
Airport İstanbul Atatürk Airport (LTBA)

Arrival

Time N/A
Airport Ted Stevens Anchorage International Airport (PANC)
Time Latitude Longitude Altitude Speed Heading
2026-04-30 21:02 40.97778 28.82883 116 ft 0 kts 11°
2026-04-30 21:06 40.97777 28.82883 116 ft 0 kts 11°
2026-04-30 21:06 40.97773 28.82882 112 ft 2 kts 11°
2026-04-30 21:06 40.97757 28.82878 112 ft 2 kts 10°
2026-04-30 21:06 40.97741 28.82874 113 ft 2 kts
2026-04-30 21:07 40.97725 28.82877 112 ft 2 kts 326°
2026-04-30 21:07 40.97712 28.82891 112 ft 2 kts 293°
2026-04-30 21:07 40.97712 28.82912 113 ft 2 kts 253°
2026-04-30 21:07 40.97717 28.82933 112 ft 2 kts 250°
2026-04-30 21:08 40.97720 28.82945 112 ft 1 kts 254°
2026-04-30 21:08 40.97720 28.82946 112 ft 0 kts 255°
2026-04-30 21:12 40.97720 28.82943 116 ft 1 kts 255°
2026-04-30 21:13 40.97707 28.82872 116 ft 15 kts 257°
2026-04-30 21:13 40.97636 28.82766 114 ft 17 kts 183°
2026-04-30 21:13 40.97542 28.82693 112 ft 16 kts 233°
2026-04-30 21:13 40.97481 28.82563 113 ft 17 kts 238°
2026-04-30 21:14 40.97418 28.82421 113 ft 18 kts 240°
2026-04-30 21:14 40.97352 28.82269 113 ft 20 kts 240°
2026-04-30 21:14 40.97277 28.82110 114 ft 21 kts 238°
2026-04-30 21:14 40.97199 28.81941 113 ft 22 kts 238°
2026-04-30 21:15 40.97123 28.81780 114 ft 21 kts 238°
2026-04-30 21:15 40.97041 28.81611 113 ft 22 kts 237°
2026-04-30 21:15 40.96957 28.81434 114 ft 23 kts 238°
2026-04-30 21:15 40.96873 28.81249 114 ft 24 kts 239°
2026-04-30 21:16 40.96781 28.81084 115 ft 21 kts 208°
2026-04-30 21:16 40.96667 28.81146 114 ft 13 kts 120°
2026-04-30 21:16 40.96682 28.81247 115 ft 10 kts 65°
2026-04-30 21:16 40.96720 28.81330 116 ft 15 kts 58°
2026-04-30 21:17 40.96914 28.81741 114 ft 94 kts 57°
2026-04-30 21:17 40.97383 28.82752 155 ft 161 kts 58°
2026-04-30 21:17 40.97926 28.84076 949 ft 168 kts 58°
2026-04-30 21:17 40.98529 28.85462 1827 ft 178 kts 56°
2026-04-30 21:18 40.99164 28.86856 2554 ft 177 kts 55°
2026-04-30 21:18 40.99858 28.88274 2869 ft 195 kts 55°
2026-04-30 21:18 41.00624 28.89848 3239 ft 210 kts 56°
2026-04-30 21:18 41.01424 28.91536 3631 ft 225 kts 57°
2026-04-30 21:19 41.02275 28.93356 4007 ft 239 kts 57°
2026-04-30 21:19 41.03163 28.95252 4593 ft 244 kts 57°
2026-04-30 21:19 41.04077 28.97226 4991 ft 261 kts 58°
2026-04-30 21:19 41.05046 28.99328 5397 ft 273 kts 58°
2026-04-30 21:20 41.06051 29.01510 5900 ft 282 kts 57°
2026-04-30 21:20 41.07082 29.03747 6511 ft 287 kts 57°
2026-04-30 21:20 41.08130 29.06027 7086 ft 292 kts 58°
2026-04-30 21:20 41.09269 29.08290 7593 ft 297 kts 48°
2026-04-30 21:21 41.10894 29.09971 8141 ft 298 kts 20°
2026-04-30 21:21 41.12859 29.10544 8711 ft 293 kts 357°
2026-04-30 21:21 41.16982 29.10507 9986 ft 300 kts 353°
2026-04-30 21:22 41.19111 29.10474 10429 ft 310 kts 354°
2026-04-30 21:22 41.26061 29.10409 11250 ft 354 kts 355°
2026-04-30 21:23 41.28548 29.10393 11515 ft 368 kts 355°
2026-04-30 21:23 41.31158 29.10383 11771 ft 380 kts 355°
2026-04-30 21:23 41.36592 29.10188 12268 ft 399 kts 346°
2026-04-30 21:24 41.39215 29.09100 12673 ft 393 kts 327°
2026-04-30 21:24 41.41426 29.07035 13140 ft 386 kts 311°
2026-04-30 21:24 41.43336 29.04527 13626 ft 387 kts 308°
2026-04-30 21:24 41.45212 29.01941 14092 ft 390 kts 308°
2026-04-30 21:25 41.49006 28.96740 15047 ft 392 kts 308°
2026-04-30 21:25 41.50919 28.94122 15530 ft 393 kts 308°
2026-04-30 21:25 41.52809 28.91533 16046 ft 394 kts 309°
2026-04-30 21:26 41.56659 28.86263 16947 ft 398 kts 309°
2026-04-30 21:26 41.58744 28.83784 17382 ft 408 kts 319°
2026-04-30 21:27 41.64287 28.81434 18136 ft 440 kts 355°
2026-04-30 21:27 41.67351 28.82055 18516 ft 454 kts 13°
2026-04-30 21:27 41.70197 28.83852 18837 ft 465 kts 30°
2026-04-30 21:28 41.74407 28.90455 19452 ft 478 kts 65°
2026-04-30 21:28 41.75490 28.94685 19802 ft 480 kts 73°
2026-04-30 21:28 41.79114 29.02085 20455 ft 480 kts 37°
2026-04-30 21:29 41.81897 29.04497 20779 ft 475 kts 20°
2026-04-30 21:29 41.91423 29.05989 21827 ft 458 kts 345°
2026-04-30 21:30 41.97869 29.05533 22527 ft 477 kts
2026-04-30 21:31 42.07572 29.09615 23611 ft 494 kts 15°
2026-04-30 21:31 42.14081 29.12769 24251 ft 497 kts 13°
2026-04-30 21:32 42.20804 29.14309 24849 ft 488 kts 356°
2026-04-30 21:32 42.24161 29.14430 25150 ft 488 kts 354°
2026-04-30 21:32 42.27562 29.14432 25477 ft 489 kts 353°
2026-04-30 21:32 42.30968 29.14386 25821 ft 491 kts 352°
2026-04-30 21:33 42.34397 29.14334 26118 ft 494 kts 352°
2026-04-30 21:33 42.41309 29.14271 26873 ft 498 kts 352°
2026-04-30 21:33 42.44784 29.14260 27103 ft 503 kts 352°
2026-04-30 21:34 42.48270 29.14257 27432 ft 505 kts 352°
2026-04-30 21:34 42.55342 29.14264 28030 ft 509 kts 352°
2026-04-30 21:34 42.58850 29.14268 28336 ft 511 kts 352°
2026-04-30 21:35 42.62419 29.14273 28640 ft 513 kts 352°
2026-04-30 21:35 42.65996 29.14276 28914 ft 515 kts 352°
2026-04-30 21:35 42.69595 29.14279 29253 ft 515 kts 352°
2026-04-30 21:35 42.73167 29.14285 29694 ft 514 kts 351°
2026-04-30 21:36 42.76727 29.14291 30120 ft 512 kts 351°
2026-04-30 21:36 42.80297 29.14296 30493 ft 511 kts 351°
2026-04-30 21:37 42.90864 29.14306 31621 ft 505 kts 351°
2026-04-30 21:37 42.94368 29.14308 31975 ft 503 kts 351°
2026-04-30 21:37 42.97870 29.14310 32325 ft 501 kts 351°
2026-04-30 21:37 43.01361 29.14311 32648 ft 500 kts 351°
2026-04-30 21:38 43.04831 29.14313 32974 ft 498 kts 351°
2026-04-30 21:38 43.08304 29.14314 33287 ft 497 kts 351°
2026-04-30 21:38 43.11762 29.14319 33644 ft 495 kts 351°
2026-04-30 21:38 43.15201 29.14326 33996 ft 494 kts 351°
2026-04-30 21:39 43.18611 29.14326 34185 ft 495 kts 351°
2026-04-30 21:39 43.22082 29.14320 34212 ft 500 kts 351°
2026-04-30 21:39 43.29072 29.14314 34216 ft 501 kts 351°
2026-04-30 21:40 43.36051 29.14299 34201 ft 500 kts 351°
2026-04-30 21:40 43.43006 29.14098 34095 ft 498 kts 349°
2026-04-30 21:41 43.49870 29.13492 33966 ft 495 kts 346°
2026-04-30 21:41 43.53335 29.13354 34119 ft 501 kts 354°
2026-04-30 21:41 43.56846 29.13568 34231 ft 506 kts 356°
2026-04-30 21:42 43.63873 29.14104 34229 ft 504 kts 354°
2026-04-30 21:42 43.67356 29.13950 34231 ft 493 kts 345°
2026-04-30 21:42 43.70641 29.13070 34236 ft 481 kts 335°
2026-04-30 21:43 43.75633 29.10056 34241 ft 464 kts 320°
2026-04-30 21:43 43.78999 29.06469 34240 ft 453 kts 310°
2026-04-30 21:43 43.81272 29.03452 34251 ft 451 kts 309°
2026-04-30 21:44 43.85677 28.97275 34243 ft 450 kts 308°
2026-04-30 21:44 43.90062 28.91045 34246 ft 450 kts 308°
2026-04-30 21:45 43.94449 28.84853 34252 ft 451 kts 308°
2026-04-30 21:45 43.98856 28.78653 34253 ft 451 kts 308°
2026-04-30 21:46 44.03264 28.72444 34257 ft 451 kts 308°
2026-04-30 21:46 44.06926 28.67275 34278 ft 451 kts 308°
2026-04-30 21:47 44.11335 28.61037 34268 ft 452 kts 308°
2026-04-30 21:47 44.15751 28.54772 34277 ft 455 kts 308°
2026-04-30 21:48 44.20193 28.48456 34287 ft 456 kts 308°
2026-04-30 21:48 44.24637 28.42127 34287 ft 456 kts 308°
2026-04-30 21:49 44.26820 28.39013 34402 ft 455 kts 308°
2026-04-30 21:49 44.29062 28.35812 34679 ft 453 kts 308°
2026-04-30 21:49 44.31237 28.32700 34866 ft 454 kts 309°
2026-04-30 21:49 44.33474 28.29493 34940 ft 456 kts 309°
2026-04-30 21:50 44.35689 28.26314 35121 ft 456 kts 309°
2026-04-30 21:50 44.37877 28.23174 35304 ft 456 kts 309°
2026-04-30 21:50 44.40086 28.20001 35497 ft 456 kts 309°
2026-04-30 21:50 44.42308 28.16804 35605 ft 458 kts 310°
2026-04-30 21:51 44.44529 28.13603 35738 ft 458 kts 310°
2026-04-30 21:51 44.46750 28.10401 35911 ft 458 kts 310°
2026-04-30 21:51 44.48974 28.07190 36014 ft 459 kts 310°
2026-04-30 21:51 44.51193 28.03981 36137 ft 460 kts 310°
2026-04-30 21:52 44.53422 28.00757 36265 ft 461 kts 310°
2026-04-30 21:52 44.55645 27.97536 36306 ft 463 kts 310°
2026-04-30 21:52 44.60176 27.90957 36303 ft 467 kts 310°
2026-04-30 21:53 44.64663 27.84432 36290 ft 467 kts 310°
2026-04-30 21:53 44.69196 27.77822 36305 ft 468 kts 310°
2026-04-30 21:54 44.73685 27.71260 36296 ft 468 kts 310°
2026-04-30 21:54 44.78193 27.64654 36301 ft 469 kts 311°
2026-04-30 21:55 44.82712 27.58015 36304 ft 469 kts 311°
2026-04-30 21:55 44.87225 27.51371 36303 ft 469 kts 311°
2026-04-30 21:56 44.91732 27.44719 36303 ft 469 kts 311°
2026-04-30 21:56 44.96234 27.38058 36303 ft 469 kts 311°
2026-04-30 21:57 45.00705 27.31426 36303 ft 469 kts 311°
2026-04-30 21:57 45.05200 27.24743 36306 ft 469 kts 311°
2026-04-30 21:58 45.09692 27.18047 36324 ft 469 kts 311°
2026-04-30 21:58 45.14190 27.11326 36305 ft 470 kts 311°
2026-04-30 21:59 45.18687 27.04590 36304 ft 471 kts 311°
2026-04-30 22:00 45.25409 26.94492 36313 ft 471 kts 311°
2026-04-30 22:00 45.32138 26.84344 36327 ft 470 kts 311°
2026-04-30 22:01 45.36632 26.77546 36339 ft 472 kts 311°
2026-04-30 22:01 45.41129 26.70727 36328 ft 472 kts 311°
2026-04-30 22:02 45.45625 26.63893 36347 ft 472 kts 311°
2026-04-30 22:02 45.50126 26.57033 36347 ft 474 kts 311°
2026-04-30 22:03 45.54603 26.50192 36350 ft 475 kts 311°
2026-04-30 22:03 45.59106 26.43296 36360 ft 475 kts 311°
2026-04-30 22:04 45.63608 26.36384 36362 ft 475 kts 311°
2026-04-30 22:05 45.70350 26.25995 36367 ft 475 kts 312°
2026-04-30 22:05 45.74841 26.19056 36371 ft 475 kts 312°
2026-04-30 22:06 45.79298 26.12152 36373 ft 475 kts 312°
2026-04-30 22:06 45.86022 26.01700 36373 ft 474 kts 312°
2026-04-30 22:07 45.90476 25.94754 36378 ft 472 kts 312°
2026-04-30 22:07 45.94929 25.87795 36377 ft 472 kts 312°
2026-04-30 22:08 45.99346 25.80873 36379 ft 472 kts 312°
2026-04-30 22:08 46.03777 25.73912 36381 ft 472 kts 312°
2026-04-30 22:09 46.08231 25.66896 36379 ft 471 kts 312°
2026-04-30 22:09 46.12622 25.59961 36379 ft 471 kts 312°
2026-04-30 22:10 46.17043 25.52962 36382 ft 472 kts 312°
2026-04-30 22:10 46.21469 25.45935 36381 ft 473 kts 313°
2026-04-30 22:11 46.28109 25.35363 36376 ft 473 kts 313°
2026-04-30 22:12 46.32523 25.28311 36375 ft 473 kts 313°
2026-04-30 22:12 46.36944 25.21228 36373 ft 473 kts 313°
2026-04-30 22:13 46.41355 25.14144 36372 ft 474 kts 313°
2026-04-30 22:13 46.45764 25.07044 36373 ft 474 kts 313°
2026-04-30 22:14 46.50172 24.99929 36370 ft 474 kts 313°
2026-04-30 22:14 46.54558 24.92827 36365 ft 475 kts 313°
2026-04-30 22:15 46.58972 24.85663 36368 ft 476 kts 313°
2026-04-30 22:15 46.63386 24.78482 36364 ft 475 kts 313°
2026-04-30 22:16 46.67792 24.71293 36357 ft 475 kts 313°
2026-04-30 22:17 46.76586 24.56889 36362 ft 476 kts 313°
2026-04-30 22:17 46.83177 24.46043 36365 ft 476 kts 313°
2026-04-30 22:18 46.89751 24.35177 36362 ft 476 kts 313°
2026-04-30 22:19 46.96291 24.24329 36373 ft 476 kts 313°
2026-04-30 22:20 47.02852 24.13402 36360 ft 476 kts 313°
2026-04-30 22:20 47.09395 24.02460 36364 ft 476 kts 313°
2026-04-30 22:21 47.13760 23.95135 36363 ft 476 kts 313°
2026-04-30 22:21 47.18117 23.87804 36362 ft 476 kts 313°
2026-04-30 22:22 47.22466 23.80466 36373 ft 476 kts 313°
2026-04-30 22:22 47.26790 23.73152 36364 ft 477 kts 313°
2026-04-30 22:23 47.31144 23.65769 36366 ft 477 kts 313°
2026-04-30 22:23 47.35494 23.58370 36363 ft 477 kts 313°
2026-04-30 22:24 47.39839 23.50957 36359 ft 477 kts 313°
2026-04-30 22:24 47.43926 23.43216 36364 ft 480 kts 305°
2026-04-30 22:25 47.47426 23.34777 36362 ft 481 kts 303°
2026-04-30 22:25 47.50826 23.26236 36356 ft 482 kts 303°
2026-04-30 22:26 47.55884 23.13453 36357 ft 482 kts 303°
2026-04-30 22:27 47.59285 23.04863 36354 ft 483 kts 303°
2026-04-30 22:27 47.64390 22.91937 36354 ft 484 kts 303°
2026-04-30 22:28 47.69461 22.79031 36347 ft 485 kts 303°
2026-04-30 22:29 47.76239 22.61685 36348 ft 485 kts 303°
2026-04-30 22:31 47.88047 22.31192 36347 ft 487 kts 303°
2026-04-30 22:32 47.95900 22.10717 36345 ft 487 kts 303°
2026-04-30 22:33 48.04268 21.88729 36368 ft 488 kts 303°
2026-04-30 22:35 48.12620 21.66595 36366 ft 489 kts 303°
2026-04-30 22:36 48.19859 21.49483 36344 ft 480 kts 318°
2026-04-30 22:36 48.22320 21.46158 36343 ft 475 kts 327°
2026-04-30 22:37 48.31205 21.40351 36348 ft 463 kts 353°
2026-04-30 22:37 48.34397 21.39935 36346 ft 460 kts
2026-04-30 22:37 48.40604 21.41336 36354 ft 457 kts 19°
2026-04-30 22:38 48.46486 21.44906 36347 ft 456 kts 19°
2026-04-30 22:39 48.55776 21.48088 36363 ft 457 kts 11°
2026-04-30 22:40 48.74554 21.52876 36363 ft 456 kts 11°
2026-04-30 22:41 48.90209 21.56907 36363 ft 456 kts 11°
2026-04-30 22:43 49.08928 21.61763 36361 ft 452 kts 11°
2026-04-30 22:44 49.21327 21.65001 36381 ft 452 kts 11°
2026-04-30 22:45 49.39873 21.69873 36377 ft 451 kts 12°
2026-04-30 22:47 49.58412 21.74780 36374 ft 448 kts 12°
2026-04-30 22:48 49.70670 21.78048 36373 ft 448 kts 12°
2026-04-30 22:49 49.89074 21.82983 36357 ft 446 kts 12°
2026-04-30 22:51 50.07305 21.87910 36372 ft 442 kts 13°
2026-04-30 22:52 50.16407 21.90385 36371 ft 442 kts 13°
2026-04-30 22:53 50.28524 21.93692 36378 ft 441 kts 13°
2026-04-30 22:53 50.37545 21.96167 36377 ft 441 kts 13°
2026-04-30 22:55 50.52629 22.00326 36377 ft 439 kts 13°
2026-04-30 22:56 50.64674 22.03667 36384 ft 439 kts 13°
2026-04-30 22:57 50.79653 22.07844 36361 ft 437 kts 13°
2026-04-30 22:58 50.91131 22.13236 36387 ft 427 kts 21°
2026-04-30 22:59 51.07974 22.22317 36387 ft 425 kts 21°
2026-05-01 07:23 78.85570 -139.15472 36410 ft 497 kts 189°
2026-05-01 07:24 78.75437 -139.27016 36386 ft 497 kts 198°
2026-05-01 07:24 78.68935 -139.38731 36410 ft 495 kts 204°
2026-05-01 07:25 78.62708 -139.53531 36440 ft 494 kts 209°
2026-05-01 07:25 78.56809 -139.71266 36429 ft 492 kts 215°
2026-05-01 07:26 78.51309 -139.91712 36455 ft 491 kts 221°
2026-05-01 07:26 78.46296 -140.14490 36450 ft 490 kts 226°
2026-05-01 07:27 78.41737 -140.39744 36430 ft 489 kts 232°
2026-05-01 07:27 78.37721 -140.67040 36441 ft 488 kts 238°
2026-05-01 07:28 78.34300 -140.96018 36447 ft 487 kts 244°
2026-05-01 07:28 78.31506 -141.26432 36473 ft 485 kts 249°
2026-05-01 07:29 78.29385 -141.57644 36467 ft 485 kts 255°
2026-05-01 07:29 78.27908 -141.90115 36449 ft 485 kts 261°
2026-05-01 07:30 78.27121 -142.23184 36456 ft 484 kts 267°
2026-05-01 07:30 78.27034 -142.56010 36477 ft 483 kts 272°
2026-05-01 07:31 78.27641 -142.88903 36444 ft 484 kts 278°
2026-05-01 07:32 78.31726 -143.63381 36469 ft 483 kts 292°
2026-05-01 07:33 78.36235 -144.07991 36434 ft 485 kts 301°
2026-05-01 07:33 78.42110 -144.48829 36438 ft 485 kts 309°
2026-05-01 07:34 78.49210 -144.84896 36464 ft 486 kts 318°
2026-05-01 07:35 78.54544 -145.05837 36457 ft 487 kts 324°
2026-05-01 07:35 78.60288 -145.23966 36451 ft 488 kts 330°
2026-05-01 07:36 78.66353 -145.38993 36455 ft 488 kts 336°
2026-05-01 07:36 78.72748 -145.50890 36457 ft 489 kts 342°
2026-05-01 07:37 78.82732 -145.62376 36438 ft 491 kts 351°
2026-05-01 07:37 78.89541 -145.65606 36456 ft 492 kts 356°
2026-05-01 07:38 78.96396 -145.65194 36465 ft 493 kts
2026-05-01 07:39 79.06584 -145.57654 36456 ft 495 kts 11°
2026-05-01 07:39 79.16468 -145.41785 36468 ft 496 kts 20°
2026-05-01 07:40 79.22717 -145.26763 36463 ft 496 kts 26°
2026-05-01 07:40 79.28694 -145.08111 36459 ft 497 kts 32°
2026-05-01 07:41 79.34292 -144.86055 36464 ft 498 kts 38°
2026-05-01 07:42 79.41793 -144.47329 36485 ft 499 kts 47°
2026-05-01 07:42 79.46153 -144.17928 36489 ft 499 kts 53°
2026-05-01 07:43 79.49941 -143.85980 36472 ft 500 kts 59°
2026-05-01 07:43 79.54440 -143.34186 36464 ft 501 kts 68°
2026-05-01 07:44 79.58058 -142.60086 36479 ft 502 kts 80°
2026-05-01 07:45 79.58802 -142.21964 36462 ft 502 kts 86°
2026-05-01 07:45 79.58830 -141.83316 36458 ft 503 kts 92°
2026-05-01 07:46 79.58135 -141.44840 36438 ft 503 kts 98°
2026-05-01 07:47 79.55756 -140.88397 36445 ft 503 kts 107°
2026-05-01 07:47 79.53313 -140.52320 36446 ft 503 kts 113°
2026-05-01 07:48 79.48414 -140.01249 36409 ft 504 kts 122°
2026-05-01 07:48 79.44387 -139.69920 36407 ft 504 kts 128°
2026-05-01 07:49 79.37334 -139.27857 36381 ft 504 kts 137°
2026-05-01 07:50 79.31992 -139.03298 36388 ft 504 kts 143°
2026-05-01 07:50 79.23199 -138.72526 36398 ft 503 kts 152°
2026-05-01 07:51 79.16901 -138.56260 36388 ft 503 kts 158°
2026-05-01 07:52 79.06978 -138.38521 36366 ft 502 kts 166°
2026-05-01 07:52 79.00129 -138.31208 36376 ft 501 kts 172°
2026-05-01 07:53 78.89720 -138.27106 36390 ft 500 kts 181°
2026-05-01 07:53 78.82787 -138.28801 36387 ft 499 kts 186°
2026-05-01 07:55 78.65908 -138.47351 36396 ft 496 kts 200°
2026-05-01 07:56 78.50487 -138.85140 36455 ft 493 kts 214°
2026-05-01 07:57 78.44908 -139.04904 36449 ft 491 kts 219°